Regional Weather Roundup
Issued by NWS

Home | Current Version | Previous Version | Graphics & Text | Print | Product List | Glossary Off
Versions: 1 2 3 4 5 6 7 8 9 10 11 12 13 14 15 16 17 18 19 20 21 22 23 24 25 26 27 28 29 30 31 32 33 34 35 36 37 38 39 40 41 42 43 44 45 46 47 48 49 50

000
ASUS43 KLSX 290959
RWRMO

WEATHER SUMMARY FOR MISSOURI
NATIONAL WEATHER SERVICE SPRINGFIELD MO
500 AM CDT MON MAY 29 2017

NOTE: "FAIR" INDICATES FEW OR NO CLOUDS BELOW 12,000 FEET WITH NO
       SIGNIFICANT WEATHER AND/OR OBSTRUCTIONS TO VISIBILITY.
       CURRENT SKY AND/OR WEATHER CONDITIONS ARE NOT AVAILABLE FOR
       CHILLICOTHE AND FARMINGTON.

MOZ001>031-035>038-043-044-053-054-291100-
...NORTHERN AND WESTERN MISSOURI...

CITY           SKY/WX    TMP DP  RH WIND       PRES   REMARKS
KANSAS CTY INT PTCLDY    56  52  86 SW7       29.94S
KANSAS C DTWN  CLEAR     58  54  86 SW6       29.93F
LEE`S SUMMIT     N/A     58  52  80 SW6       29.95S
ST JOSEPH      MOCLDY    58  55  90 SW3       29.93S
CHILLICOTHE      N/A     57  49  74 VRB3      29.92F
KIRKSVILLE     CLEAR     55  47  74 SW6       29.90F

$$
MOZ066>068-077>081-088>096-101>105-291100-
...SOUTHWEST MISSOURI...

CITY           SKY/WX    TMP DP  RH WIND       PRES   REMARKS
SPRINGFIELD    CLEAR     60  55  83 SW7       29.98F
JOPLIN         CLEAR     61  56  83 SW8       29.99F

$$
MOZ032>034-039>042-045>050-055>058-069>072-291100-
...CENTRAL MISSOURI...

CITY           SKY/WX    TMP DP  RH WIND       PRES   REMARKS
COLUMBIA       PTCLDY    59  52  77 W6        29.94S
JEFFERSON CITY CLEAR     60  55  83 CALM      29.94R
ROLLA          CLEAR     58  54  86 W8        29.95R
SEDALIA        CLEAR     59  55  87 SW5       29.95F
WARRENSBURG    CLEAR     54  52  94 CALM      29.95S
OSAGE BEACH    CLOUDY    54  53  97 CALM      29.97S

$$
MOZ051-052-059>065-291100-
...EAST CENTRAL MISSOURI...

CITY           SKY/WX    TMP DP  RH WIND       PRES   REMARKS
ST LOUIS INTL  PTCLDY    64  55  72 W8        29.92R
SPIRIT OF STL  CLEAR     63  57  81 SW9       29.91R
ST CHARLES     CLEAR     58  57  97 CALM      29.90R

$$
MOZ072>076-082>087-097>100-106>115-291100-
...SOUTH CENTRAL AND SOUTHEAST MISSOURI...

CITY           SKY/WX    TMP DP  RH WIND       PRES   REMARKS
CAPE GIRARDEAU MOCLDY    59  57  93 W5        29.95R
FARMINGTON     CLOUDY    55  53  93 CALM      29.97S
POPLAR BLUFF   CLOUDY    62  58  86 NW3       29.95S
WEST PLAINS    CLEAR     59  55  87 W6        29.99F

$$



USA.gov is the U.S. government's official web portal to all federal, state and local government web resources and services.